Powrót do katalogu

CZ-6A DEB

AktywnyPO
NORAD 60653·DEBRIS·🇨🇳 China

Wystrzelony Aug 6, 2024 z Taiyuan Satellite Launch Center

Loading…

Następne Przeloty (najbliższe 24 godziny)

TLE

ŚwieżeSource: Space-Track

Epoka: Sep 14, 2026, 09:37 UTC

1 60653U 24140BE  26257.40108425  .00000361  00000-0  12244-3 0  9993
2 60653  88.6549 230.5589 0027387 328.2970  31.6577 14.34304179109670

Śledź CZ-6A DEB w czasie rzeczywistym z AllMySat

Download on the App Store